Regional Weather Roundup
Issued by NWS

Home | Current Version | Previous Version | Graphics & Text | Print | Product List | Glossary On
Versions: 1 2 3 4 5 6 7 8 9 10 11 12 13 14 15 16 17 18 19 20 21 22 23 24 25 26 27 28 29 30 31 32 33 34 35 36 37 38 39 40 41 42 43 44 45 46 47 48 49 50
537
ASUS44 KLIX 222201
RWRLA
LOUISIANA WEATHER ROUNDUP
NATIONAL WEATHER SERVICE NEW ORLEANS LA
500 PM CDT TUE APR 22 2014

NOTE: "FAIR" INDICATES FEW OR NO CLOUDS BELOW 12,000 FEET WITH NO
      SIGNIFICANT WEATHER AND/OR OBSTRUCTIONS TO VISIBILITY.
      SKY/WX - SKY CONDITION AND SIGNIFICANT WEATHER.
      TMP - AIR TEMPERATURE.    DP   - DEWPOINT TEMPERATURE.
      RH  - RELATIVE HUMIDITY.  PRES - PRESSURE.
      HX  - HEAT INDEX.         WCI  - WIND CHILL INDEX.

*  THESE STATIONS ARE NOT NWS OR FAA STATIONS AND ARE NOT UNDER
   NWS QUALITY CONTROL.

LAZ040-048-061>063-065-066-069-222300-
SOUTHEAST LOUISIANA

CITY           SKY/WX    TMP DP  RH WIND       PRES   REMARKS
N.O. AUDUBON     N/A     77  67  71 MISG        N/A
N.O. INTL ARPT PTSUNNY   76  67  73 SW9       29.89F
N.O. LAKEFRONT PTSUNNY   73  66  78 W7        29.90F
N.O. DOWNTOWN* MOCLDY    79  63  57 SW7       29.90F
SLIDELL        MOSUNNY   76  64  66 W8        29.88S
BATON ROUGE    PTSUNNY   80  60  50 NW9       29.91S
BOOTHVILLE     CLOUDY    72  67  84 W13       29.91F
BELLE CHASSE   MOSUNNY   75  65  70 W6        29.89F
BOGALUSA*        N/A     77  63  61 NW8       29.90S
GALLIANO*      NOT AVBL
NEW ROADS*     NOT AVBL
GONZALES*      MOCLDY    78  62  57 NW6       29.90S
HAMMOND*       NOT AVBL
HOUMA*         MOSUNNY   75  64  69 SW12      29.91F
PORT FOURCHON* PTCLDY    75  68  78 W14       29.93F

$$

LAZ041-044-053-054-222300-
SOUTHWEST LOUISIANA

CITY           SKY/WX    TMP DP  RH WIND       PRES   REMARKS
LAKE CHARLES   SUNNY     83  59  44 N5        29.90F
LAFAYETTE      MOSUNNY   79  60  52 NW8       29.91S
PATTERSON      CLOUDY    75  70  83 SW15      29.94S
SALT POINT       N/A     77  69  76 VRB6      29.90F
NEW IBERIA     PTSUNNY   83  60  45 NW12      29.91S
CHENAULT AIRPK MOSUNNY   82  57  42 N10       29.92S

$$

LAZ027-028-222300-
CENTRAL LOUISIANA

CITY           SKY/WX    TMP DP  RH WIND       PRES   REMARKS
FORT POLK      MOSUNNY   80  57  45 N7        29.92F
ALEXANDRIA INT PTSUNNY   83  61  47 NE6       29.90F
ALEXANDRIA     MOSUNNY   81  59  47 VRB5      29.91F

$$

LAZ001-002-222300-
NORTHWEST LOUISIANA

CITY           SKY/WX    TMP DP  RH WIND       PRES   REMARKS
SHREVEPORT     MOSUNNY   83  58  42 N8        29.92F
BARKSDALE AFB  NOT AVBL
DTN SHREVEPORT PTSUNNY   80  60  50 NW6       29.92F

$$

LAZ014-016-222300-
NORTHEAST LOUISIANA

CITY           SKY/WX    TMP DP  RH WIND       PRES   REMARKS
MONROE         MOSUNNY   79  61  53 N8        29.93S
TALLULAH       MOSUNNY   79  62  56 N9        29.91F

$$




USA.gov is the U.S. government's official web portal to all federal, state and local government web resources and services.